• In Spain
  • List of Countries
  • For 7 days
  • Water Temperature
  • Satellite Maps
  • Weather Map
  • Weather Widgets
  • user-avatar
    Login

    Hourly Weather Pernik

    Today, 23 September, Sunday

    Time Temperature Precipitation Wind Pressure Humidity
    00:00 +16°C° 0 mm 1 mps 694 mmHg 68%
    01:00 +15°C° 0 mm 1 mps 694 mmHg 71%
    02:00 +15°C° 0 mm 1 mps 694 mmHg 74%
    03:00 +14°C° 0 mm 1 mps 694 mmHg 76%
    04:00 +14°C° 0 mm 1 mps 694 mmHg 77%
    05:00 +14°C° 0 mm 1 mps 694 mmHg 79%
    06:00 +15°C° 0 mm 1 mps 694 mmHg 74%
    07:00 +16°C° 0 mm 0 mps 695 mmHg 68%
    08:00 +17°C° 0 mm 0 mps 695 mmHg 63%
    09:00 +20°C° 0 mm 0 mps 696 mmHg 55%
    10:00 +23°C° 0 mm 0 mps 696 mmHg 46%
    11:00 +25°C° 0 mm 0 mps 697 mmHg 38%
    12:00 +28°C° 0 mm 1 mps 697 mmHg 36%
    13:00 +29°C° 0 mm 1 mps 696 mmHg 34%
    14:00 +30°C° 0 mm 1 mps 696 mmHg 31%
    15:00 +29°C° 0 mm 1 mps 696 mmHg 33%
    16:00 +29°C° 0 mm 1 mps 695 mmHg 34%
    17:00 +28°C° 0 mm 1 mps 695 mmHg 35%
    18:00 +25°C° 0 mm 1 mps 694 mmHg 42%
    19:00 +23°C° 0 mm 1 mps 694 mmHg 49%
    20:00 +20°C° 0 mm 1 mps 694 mmHg 55%
    21:00 +20°C° 0 mm 1 mps 694 mmHg 56%
    22:00 +19°C° 0 mm 1 mps 694 mmHg 57%
    23:00 +19°C° 0 mm 1 mps 694 mmHg 58%

    Tomorrow, 24 September, Monday

    Time Temperature Precipitation Wind Pressure Humidity
    00:00 +19°C° 0 mm 1 mps 693 mmHg 58%
    01:00 +17°C° 0 mm 2 mps 693 mmHg 58%
    02:00 +17°C° 0 mm 2 mps 692 mmHg 58%
    03:00 +17°C° 0 mm 2 mps 692 mmHg 58%
    04:00 +16°C° 0 mm 2 mps 691 mmHg 59%
    05:00 +16°C° 0 mm 2 mps 691 mmHg 59%
    06:00 +17°C° 0 mm 2 mps 691 mmHg 56%
    07:00 +18°C° 0 mm 2 mps 691 mmHg 53%
    08:00 +20°C° 0 mm 2 mps 691 mmHg 50%
    09:00 +23°C° 0 mm 2 mps 692 mmHg 43%
    10:00 +25°C° 0 mm 3 mps 692 mmHg 36%
    11:00 +28°C° 0 mm 3 mps 692 mmHg 30%
    12:00 +28°C° 0 mm 4 mps 692 mmHg 31%
    13:00 +28°C° 0 mm 5 mps 692 mmHg 33%
    14:00 +27°C° 0 mm 6 mps 692 mmHg 34%
    15:00 +24°C° 0 mm 6 mps 692 mmHg 41%
    16:00 +21°C° 0 mm 6 mps 692 mmHg 49%
    17:00 +17°C° 0 mm 6 mps 692 mmHg 56%
    18:00 +15°C° 0 mm 5 mps 693 mmHg 62%
    19:00 +13°C° 0 mm 4 mps 694 mmHg 67%
    20:00 +10°C° 0 mm 3 mps 694 mmHg 73%
    21:00 +10°C° 0 mm 3 mps 695 mmHg 74%
    22:00 +9°C° 0 mm 3 mps 695 mmHg 75%
    23:00 +9°C° 0 mm 3 mps 696 mmHg 76%

    Day after tomorrow, 25 September, Tuesday

    Time Temperature Precipitation Wind Pressure Humidity
    00:00 +8°C° 0 mm 3 mps 696 mmHg 77%
    01:00 +8°C° 0 mm 3 mps 696 mmHg 78%
    02:00 +7°C° 0 mm 3 mps 696 mmHg 79%
    03:00 +7°C° 0 mm 3 mps 696 mmHg 80%
    04:00 +6°C° 0 mm 2 mps 697 mmHg 82%
    05:00 +6°C° 0 mm 2 mps 697 mmHg 84%
    06:00 +5°C° 0 mm 3 mps 697 mmHg 78%
    07:00 +7°C° 0 mm 3 mps 698 mmHg 71%
    08:00 +7°C° 0 mm 3 mps 698 mmHg 65%
    09:00 +8°C° 0 mm 4 mps 699 mmHg 55%
    10:00 +10°C° 0 mm 4 mps 699 mmHg 45%
    11:00 +12°C° 0 mm 5 mps 699 mmHg 34%
    12:00 +12°C° 0 mm 5 mps 699 mmHg 32%
    13:00 +13°C° 0 mm 5 mps 699 mmHg 31%
    14:00 +14°C° 0 mm 5 mps 698 mmHg 29%
    15:00 +13°C° 0 mm 5 mps 698 mmHg 30%
    16:00 +12°C° 0 mm 5 mps 698 mmHg 30%
    17:00 +10°C° 0 mm 5 mps 698 mmHg 31%
    18:00 +8°C° 0 mm 4 mps 699 mmHg 36%
    19:00 +7°C° 0 mm 3 mps 699 mmHg 41%
    20:00 +5°C° 0 mm 2 mps 700 mmHg 47%
    21:00 +4°C° 0 mm 2 mps 700 mmHg 50%
    22:00 +4°C° 0 mm 2 mps 700 mmHg 53%
    23:00 +3°C° 0 mm 2 mps 701 mmHg 57%

    26 September, Wednesday

    Time Temperature Precipitation Wind Pressure Humidity
    00:00 +3°C° 0 mm 2 mps 701 mmHg 60%
    01:00 +3°C° 0 mm 1 mps 701 mmHg 63%
    02:00 +3°C° 0 mm 1 mps 701 mmHg 66%
    03:00 +3°C° 0 mm 1 mps 701 mmHg 68%
    04:00 +2°C° 0 mm 1 mps 701 mmHg 70%
    05:00 +2°C° 0 mm 1 mps 701 mmHg 72%
    06:00 +3°C° 0 mm 1 mps 702 mmHg 66%
    07:00 +5°C° 0 mm 1 mps 702 mmHg 61%
    08:00 +6°C° 0 mm 1 mps 702 mmHg 56%
    09:00 +7°C° 0 mm 2 mps 703 mmHg 49%
    10:00 +9°C° 0 mm 3 mps 703 mmHg 42%
    11:00 +11°C° 0 mm 3 mps 703 mmHg 35%
    12:00 +11°C° 0 mm 4 mps 702 mmHg 32%
    13:00 +12°C° 0 mm 4 mps 702 mmHg 29%
    14:00 +13°C° 0 mm 4 mps 702 mmHg 26%
    15:00 +12°C° 0 mm 4 mps 701 mmHg 27%
    16:00 +12°C° 0 mm 4 mps 701 mmHg 28%
    17:00 +11°C° 0 mm 4 mps 701 mmHg 29%
    18:00 +9°C° 0 mm 3 mps 701 mmHg 35%
    19:00 +6°C° 0 mm 2 mps 701 mmHg 42%
    20:00 +5°C° 0 mm 1 mps 701 mmHg 48%
    21:00 +4°C° 0 mm 1 mps 701 mmHg 50%
    22:00 +4°C° 0 mm 1 mps 701 mmHg 51%
    23:00 +3°C° 0 mm 1 mps 701 mmHg 53%

    27 September, Thursday

    Time Temperature Precipitation Wind Pressure Humidity
    00:00 +3°C° 0 mm 1 mps 701 mmHg 53%
    01:00 +3°C° 0 mm 1 mps 701 mmHg 53%
    02:00 +3°C° 0 mm 1 mps 701 mmHg 54%
    03:00 +3°C° 0 mm 1 mps 701 mmHg 54%
    04:00 +3°C° 0 mm 1 mps 700 mmHg 55%
    05:00 +3°C° 0 mm 1 mps 700 mmHg 55%
    06:00 +4°C° 0 mm 1 mps 700 mmHg 50%
    07:00 +6°C° 0 mm 1 mps 701 mmHg 46%
    08:00 +7°C° 0 mm 1 mps 701 mmHg 41%
    09:00 +9°C° 0 mm 2 mps 701 mmHg 36%
    10:00 +11°C° 0 mm 3 mps 701 mmHg 30%
    11:00 +13°C° 0 mm 3 mps 700 mmHg 25%
    12:00 +14°C° 0 mm 4 mps 700 mmHg 23%
    13:00 +15°C° 0 mm 4 mps 699 mmHg 22%
    14:00 +17°C° 0 mm 4 mps 699 mmHg 20%
    15:00 +15°C° 0 mm 4 mps 698 mmHg 22%
    16:00 +15°C° 0 mm 4 mps 698 mmHg 23%
    17:00 +14°C° 0 mm 4 mps 697 mmHg 24%
    18:00 +12°C° 0 mm 3 mps 697 mmHg 29%
    19:00 +9°C° 0 mm 2 mps 697 mmHg 34%
    20:00 +8°C° 0 mm 1 mps 697 mmHg 40%
    21:00 +8°C° 0 mm 1 mps 697 mmHg 40%
    22:00 +7°C° 0 mm 1 mps 697 mmHg 41%
    23:00 +7°C° 0 mm 1 mps 697 mmHg 41%

    28 September, Friday

    Time Temperature Precipitation Wind Pressure Humidity
    00:00 +7°C° 0 mm 1 mps 697 mmHg 41%
    01:00 +6°C° 0 mm 2 mps 696 mmHg 41%
    02:00 +5°C° 0 mm 2 mps 696 mmHg 40%
    03:00 +5°C° 0 mm 2 mps 696 mmHg 41%
    04:00 +5°C° 0 mm 2 mps 696 mmHg 41%
    05:00 +5°C° 0 mm 2 mps 696 mmHg 42%
    06:00 +7°C° 0 mm 2 mps 696 mmHg 40%
    07:00 +8°C° 0 mm 2 mps 696 mmHg 38%
    08:00 +10°C° 0 mm 2 mps 696 mmHg 36%
    09:00 +13°C° 0 mm 2 mps 696 mmHg 33%
    10:00 +14°C° 0 mm 3 mps 696 mmHg 31%
    11:00 +18°C° 0 mm 4 mps 696 mmHg 28%
    12:00 +19°C° 0 mm 4 mps 696 mmHg 28%
    13:00 +19°C° 0 mm 4 mps 695 mmHg 27%
    14:00 +20°C° 0 mm 4 mps 695 mmHg 27%
    15:00 +19°C° 0 mm 4 mps 694 mmHg 29%
    16:00 +19°C° 0 mm 4 mps 694 mmHg 31%
    17:00 +18°C° 0 mm 4 mps 693 mmHg 33%
    18:00 +16°C° 0 mm 3 mps 693 mmHg 39%
    19:00 +13°C° 0 mm 2 mps 693 mmHg 44%
    20:00 +10°C° 0 mm 2 mps 693 mmHg 50%
    21:00 +10°C° 0 mm 1 mps 692 mmHg 51%
    22:00 +10°C° 0 mm 1 mps 692 mmHg 52%
    23:00 +10°C° 0 mm 1 mps 692 mmHg 53%
    Show more